Theta_e
311 312 311 311 310 308 307 308 302 315 316 304 304 302 306 305 310 313 312 310 311 311 311 310 310 310 312 315 316 311 315 311 308 308 314 315 315 313 313 306 307 308 306 306
311 311 311 310 309 308 305 304 305 318 315 302 302 305 306 308 307 309 310 309 311 313 311 309 311 312 315 314 314 313 314 309 305 307 310 313 311 314 314 314 313 308 304 307
311 311 311 311 310 309 306 305 304 310 310 311 308 303 304 303 308 308 309 309 312 311 310 314 311 311 313 315 315 320 317 312 309 304 308 312 309 311 313 312 307 308 309 311
310 311 311 311 310 309 307 308 307 308 306 306 308 308 306 303 303 309 310 307 307 310 309 310 311 313 313 315 314 315 315 310 312 311 311 312 311 310 311 310 311 308 310 311
310 310 311 311 310 308 306 303 305 310 307 308 307 303 307 305 306 308 306 307 308 308 311 312 310 314 315 313 315 315 317 313 314 309 310 310 308 310 311 311 312 312 313 312
309 309 310 311 309 306 304 308 308 305 303 307 306 306 307 307 309 311 312 311 311 309 311 315 317 318 319 319 317 316 315 314 312 307 310 308 305 310 311 312 314 313 309 314
309 309 310 311 310 306 306 306 304 302 298 304 306 305 306 307 308 308 311 313 313 313 317 316 317 317 317 318 317 320 317 317 313 307 310 300 311 315 315 312 314 315 315 316
309 309 310 310 310 308 307 308 305 303 298 303 304 305 306 307 309 308 310 312 314 316 315 313 310 310 311 311 314 315 318 316 309 305 305 308 309 311 311 311 311 316 316 317
309 309 310 310 310 309 307 306 308 305 301 299 302 303 305 307 307 308 310 314 318 315 314 311 306 302 306 306 308 315 315 319 310 307 301 299 310 315 317 316 307 318 318 319
309 309 309 310 309 309 307 306 308 304 301 306 305 303 305 307 307 309 311 310 313 315 311 307 305 304 310 304 305 307 309 310 306 306 304 306 314 316 317 305 309 319 320 321
309 309 309 309 309 309 308 306 309 303 302 304 305 305 304 306 308 306 308 309 311 312 308 308 308 306 309 308 310 309 308 306 305 307 304 302 317 315 310 318 321 321 322 322
308 308 309 309 309 309 307 303 308 307 301 303 308 308 309 307 307 305 309 307 309 311 310 312 313 308 310 310 304 311 307 312 309 308 311 318 319 319 321 323 321 321 321 321
308 308 308 308 309 309 308 306 307 304 300 302 304 303 308 310 308 309 303 310 308 310 312 314 315 307 312 305 307 309 311 313 310 310 315 316 316 317 318 319 318 318 318 318
307 307 308 308 309 309 308 306 309 304 300 297 301 309 307 310 310 308 307 308 312 310 311 313 314 309 313 309 310 309 312 313 311 310 314 316 317 318 317 316 317 315 315 315
306 307 308 308 309 308 309 309 308 307 300 298 301 304 307 309 308 308 308 306 307 309 309 310 309 312 311 313 311 308 313 311 308 305 316 316 316 319 317 314 313 313 312 311
306 307 307 308 308 306 306 299 308 309 307 299 297 304 306 308 308 307 307 308 306 306 307 308 308 307 308 306 305 310 312 313 314 313 315 313 314 316 314 312 311 312 312 313
306 307 307 307 307 307 300 298 304 307 309 301 298 298 306 307 308 308 307 308 309 308 306 303 307 306 304 303 300 307 306 308 309 311 311 307 310 308 311 312 312 313 314 315
306 307 306 306 307 306 303 308 305 307 304 303 298 298 301 307 303 303 310 306 307 307 307 306 301 305 303 298 303 305 306 307 307 308 310 310 311 312 312 313 313 311 311 313
307 307 306 305 304 301 305 308 307 308 303 299 301 298 296 307 304 307 306 308 301 307 302 302 303 300 297 301 304 306 308 307 307 310 313 314 312 311 313 315 315 314 313 312
305 304 299 295 304 307 307 305 301 302 303 303 300 302 299 303 303 304 303 305 302 297 301 305 299 298 304 306 307 309 309 310 314 313 312 314 313 315 315 315 316 316 315 314
304 300 299 308 307 307 303 298 297 299 296 301 304 302 300 306 300 301 308 303 303 296 300 300 301 299 304 309 311 315 315 317 317 317 317 318 317 317 317 316 315 316 317 317
303 303 306 308 303 300 294 296 298 297 296 302 302 303 305 304 309 305 306 302 302 293 305 300 296 302 309 311 312 314 316 317 316 317 317 318 319 319 319 319 320 320 320 321
307 305 299 300 299 288 290 289 294 295 302 306 306 302 307 306 307 306 303 296 297 305 298 296 300 307 310 315 315 315 317 316 318 316 318 318 317 319 319 319 320 320 322 322
300 295 287 292 290 294 296 295 299 304 306 307 308 304 306 308 302 305 295 300 301 294 291 293 302 308 314 315 316 317 315 317 317 317 317 317 316 318 317 317 318 317 322 323
296 297 289 292 296 296 302 306 306 306 308 308 305 305 307 303 301 303 301 296 293 295 297 303 308 314 314 315 316 316 318 317 317 317 317 316 315 314 314 316 318 317 318 319
299 295 293 298 296 299 301 303 304 309 308 310 308 303 299 298 302 297 295 294 293 301 307 312 314 314 315 313 317 319 319 318 318 318 317 317 315 313 312 312 311 310 311 313
295 297 303 299 301 302 304 304 303 308 307 302 304 295 294 304 298 296 302 299 304 305 308 310 313 313 314 314 318 316 317 317 315 318 319 316 316 316 311 308 309 308 306 306
Wind_Speed
16 18 20 20 22 25 10 6 6 6 4 9 10 15 18 5 13 12 9 6 10 12 15 22 20 22 20 15 19 23 20 11 9 17 6 5 8 13 15 10 12 7 7 8
14 17 18 18 18 15 9 7 6 5 6 9 11 11 19 13 13 13 12 9 7 6 12 15 21 19 10 11 18 19 16 11 13 8 8 5 11 11 11 13 7 11 9 4
13 16 17 17 17 16 5 6 5 6 8 6 10 18 17 20 14 13 10 8 7 8 9 9 14 19 8 12 15 6 11 15 17 13 16 16 17 15 16 16 13 12 13 15
13 14 16 17 16 17 6 5 1 6 4 11 11 5 5 17 15 13 8 13 16 13 10 14 12 17 11 10 7 9 11 12 16 20 10 13 14 18 19 20 19 18 14 12
11 13 14 15 15 20 6 5 5 2 8 5 10 9 12 12 16 6 12 12 12 19 14 14 13 14 15 11 12 12 9 8 9 13 9 13 16 18 17 20 20 13 13 13
11 12 13 13 11 14 4 2 3 6 2 6 7 14 15 12 2 9 3 5 7 12 11 4 6 4 4 8 14 13 12 8 8 14 8 7 11 15 16 18 12 15 13 10
10 11 12 11 7 7 5 4 5 6 7 6 6 2 5 11 5 6 1 4 7 7 3 4 5 6 7 8 6 10 10 11 6 8 7 14 1 2 11 12 10 9 7 4
10 11 11 8 6 3 7 3 4 5 8 5 7 8 6 5 6 7 6 2 5 4 7 8 8 7 7 5 3 5 6 10 7 9 13 13 10 5 7 10 11 12 10 7
11 11 9 7 6 4 7 4 3 5 7 3 5 7 3 5 6 7 6 4 4 6 6 9 12 14 12 10 7 1 6 4 10 7 15 19 11 10 4 3 10 5 1 4
11 11 9 8 7 3 6 3 3 5 7 0 5 2 5 4 4 4 3 2 5 5 9 11 9 12 4 12 17 8 9 9 14 13 13 9 8 8 6 11 1 4 3 4
9 9 10 9 7 4 5 3 3 5 6 8 4 2 5 3 3 5 6 6 6 6 8 10 5 8 6 7 5 10 12 9 10 11 11 16 10 8 9 5 6 4 5 6
11 12 10 8 8 5 5 5 2 4 7 7 7 10 11 7 7 6 3 5 3 6 6 2 2 5 4 8 8 4 8 3 4 4 0 6 5 9 8 6 6 5 5 5
11 10 8 5 6 6 7 4 3 5 6 7 7 4 3 6 9 8 6 3 4 3 4 4 2 3 5 7 7 6 4 1 4 5 9 9 9 8 7 5 5 3 3 5
8 9 6 4 6 6 8 5 1 5 5 5 5 2 3 0 3 6 10 5 1 4 4 2 2 3 2 3 5 7 4 6 6 4 3 8 7 6 6 5 2 2 4 7
6 7 4 6 6 6 7 5 4 5 6 5 3 4 3 2 5 4 9 6 5 2 2 1 2 1 4 1 3 7 7 7 8 5 8 8 3 9 6 4 5 7 10 12
6 7 5 6 6 6 5 3 4 4 3 5 2 4 2 2 5 6 7 5 3 4 3 2 2 3 5 4 8 3 3 1 6 3 3 3 3 4 4 7 8 10 10 9
7 8 7 5 6 7 4 4 4 3 3 5 3 5 5 1 7 5 6 5 2 2 0 3 1 3 4 4 9 5 3 4 3 2 1 4 6 6 5 8 11 10 11 11
9 7 6 5 6 7 6 3 8 5 5 4 3 3 6 2 6 6 3 5 4 4 1 2 4 3 3 5 6 8 6 5 4 3 4 8 9 9 12 14 14 15 15 14
4 5 7 5 5 3 3 4 7 5 5 4 3 3 6 2 3 3 5 4 5 4 5 4 3 5 6 5 5 2 0 3 7 8 8 11 12 12 11 12 13 14 14 13
5 4 4 3 2 6 7 7 6 7 5 4 3 1 4 4 5 4 5 4 3 5 4 3 6 7 8 10 4 5 6 6 4 7 8 7 6 8 10 11 12 11 10 10
4 2 0 3 1 5 3 3 4 3 5 4 1 3 2 2 4 6 3 3 3 4 6 4 3 4 5 4 3 2 4 5 7 9 11 12 12 11 11 10 9 8 9 8
2 2 3 3 3 3 3 2 3 5 3 5 1 5 2 4 2 3 2 1 3 1 3 4 3 4 6 3 1 3 5 5 8 9 11 12 12 10 8 8 7 7 5 6
2 3 3 2 3 1 4 6 4 4 5 3 3 5 1 4 3 1 3 4 2 1 4 4 1 7 4 1 4 5 4 6 7 3 6 6 4 4 4 6 6 9 8 6
2 2 2 3 1 1 4 2 4 3 2 2 2 4 1 2 4 1 3 3 3 4 5 4 4 6 2 4 5 5 5 4 1 3 3 3 3 2 3 4 5 6 4 3
2 3 1 1 4 4 3 3 0 4 2 0 3 2 2 3 2 3 0 4 5 5 3 3 6 3 4 7 6 3 1 3 5 2 4 5 5 4 5 5 5 7 3 2
2 1 2 4 2 5 2 4 4 4 4 1 2 2 3 3 2 5 6 3 5 0 3 4 2 4 6 8 7 2 4 5 5 4 5 6 5 5 8 8 8 8 9 9
2 1 0 2 2 1 2 3 3 4 3 2 2 3 2 1 4 3 3 3 8 9 9 9 10 10 9 6 4 5 5 6 5 5 7 8 7 10 9 9 8 9 8 8
Wind_Direction
324 327 329 333 335 338 320 291 250 122 195 204 208 217 222 254 251 215 238 262 267 229 210 202 207 210 210 196 200 202 218 213 194 206 104 293 238 232 204 225 188 236 305 291
320 324 328 333 335 355 313 292 284 145 231 228 203 217 223 230 232 221 222 228 232 212 221 216 209 208 143 181 182 193 179 219 208 185 177 184 223 210 235 243 280 267 264 263
317 321 326 330 333 342 284 278 259 173 201 280 287 205 217 216 219 253 241 263 238 208 210 207 209 208 158 188 199 43 195 214 229 213 214 208 204 224 221 230 242 248 220 264
313 319 323 328 332 340 271 228 33 354 202 212 244 271 244 216 208 223 219 233 242 225 221 195 204 194 152 174 138 188 206 223 223 241 272 272 223 226 219 229 240 257 266 282
309 314 320 328 333 324 257 301 326 336 288 259 235 210 217 228 216 224 210 238 231 229 241 214 184 188 189 171 178 181 208 214 209 229 240 244 244 244 238 229 247 251 252 252
296 308 316 325 342 325 307 25 237 277 194 219 231 223 232 219 150 188 305 267 253 232 225 354 316 24 207 151 174 181 177 164 197 227 191 217 233 228 227 227 228 235 223 253
293 301 310 320 346 329 313 335 291 268 257 238 239 281 241 229 212 279 144 263 242 48 315 240 206 144 135 140 112 173 174 191 204 249 168 225 359 51 222 228 216 236 253 222
287 296 307 312 325 312 301 321 281 291 270 301 243 227 242 230 215 228 240 104 9 297 214 188 167 173 176 127 122 157 235 209 203 238 224 240 152 177 183 201 230 218 241 209
274 282 291 297 307 317 289 292 297 277 297 164 349 280 291 261 211 182 191 149 324 221 230 222 207 200 209 187 161 200 159 243 242 193 251 250 270 124 128 157 232 96 303 264
282 277 283 283 286 310 290 296 262 270 272 299 299 278 327 317 248 276 148 25 195 222 209 215 213 213 231 199 204 180 185 216 225 231 239 245 126 133 161 217 99 98 38 4
280 269 268 275 265 280 279 319 262 300 290 295 276 310 294 279 269 284 53 216 193 209 231 226 185 261 171 231 202 192 198 207 211 238 238 234 143 138 230 74 101 80 46 20
284 274 263 265 252 234 251 270 203 283 262 317 319 291 284 280 308 334 329 355 25 14 268 215 67 200 170 229 186 192 217 303 275 259 208 96 137 89 111 118 106 75 47 16
301 291 274 276 225 208 237 302 318 250 263 257 233 222 138 240 227 260 292 110 344 103 335 351 21 218 300 192 233 162 162 237 254 207 146 144 133 127 123 117 108 85 6 347
294 292 275 239 217 199 232 266 334 277 287 278 104 156 188 127 187 219 239 338 262 283 282 298 306 255 309 240 16 245 39 152 190 222 189 153 188 193 149 132 151 282 312 313
296 274 275 236 208 196 249 267 264 258 288 333 337 312 72 120 197 183 204 238 308 338 210 258 104 49 251 161 280 235 169 209 217 286 128 214 97 182 170 205 266 293 296 295
286 303 271 233 190 200 249 223 161 194 217 274 261 68 138 113 159 162 175 198 230 308 297 91 109 48 285 251 236 23 243 20 347 347 39 288 325 183 233 276 287 285 291 287
281 300 254 183 179 242 269 7 25 138 267 254 245 164 122 137 151 140 146 176 156 258 112 258 286 170 260 273 246 164 304 347 45 39 240 230 229 253 281 296 288 282 277 274
279 260 197 173 188 263 246 178 193 236 269 255 262 134 172 226 176 139 174 157 189 184 134 172 230 145 231 258 251 264 288 284 272 262 263 276 285 278 272 280 282 274 265 263
203 154 140 188 225 234 70 111 159 214 300 295 258 242 117 203 130 102 166 225 193 111 228 205 219 203 221 233 253 220 139 300 321 313 298 292 277 273 275 278 281 277 268 261
137 207 201 193 157 99 164 184 195 200 186 220 267 170 142 245 180 143 145 203 182 197 166 111 230 247 242 254 248 281 283 281 290 289 289 329 298 271 281 291 293 281 275 262
213 220 227 69 177 214 223 189 224 164 207 189 88 336 108 113 241 117 316 165 157 231 111 254 182 237 165 160 152 204 239 259 270 276 282 283 280 282 286 293 287 272 264 257
23 310 250 236 206 226 229 169 161 232 90 149 209 98 7 100 295 241 153 183 201 188 126 237 238 106 135 161 328 305 269 272 283 288 286 281 271 273 274 280 288 281 275 263
254 235 215 241 147 250 240 156 151 141 147 130 173 143 68 159 229 98 208 201 144 130 226 225 247 120 160 281 305 296 285 285 283 256 330 285 251 259 299 313 335 311 252 227
344 348 6 283 219 96 32 50 102 81 48 132 107 112 303 94 193 107 215 85 202 226 230 214 148 160 154 324 308 274 304 318 177 33 346 9 11 9 355 355 346 312 311 302
348 293 325 45 70 235 303 11 193 82 265 6 147 181 263 144 197 217 114 194 231 229 246 133 117 77 357 341 315 295 320 149 74 75 34 30 28 23 29 3 351 347 7 26
260 280 325 93 14 85 35 39 52 24 341 134 243 210 213 200 247 199 209 237 234 131 21 39 297 290 322 325 301 85 110 105 91 70 74 67 64 55 59 45 37 39 50 62
266 170 69 213 242 35 83 84 18 4 320 63 340 266 80 290 239 228 219 298 12 341 311 298 298 287 289 275 150 120 119 102 120 98 76 68 71 75 77 63 63 69 70 75